| time (UTC) | temp C | wind direction | speed KPH | gust KPH | rain 1hr cm | rain 24hr cm | rain mn cm | humidity % | barometer mb |
| 20260504081043 | 7 | 81 | 0.0 | 0.0 | 0.00 | 0.00 | 0.00 | 87 | 1002.5 |
| 20260504050015 | 9 | 79 | 0.0 | 0.0 | 0.00 | 0.00 | 0.00 | 82 | 1004.1 |
| 20260504045005 | 9 | 86 | 0.0 | 0.0 | 0.00 | 0.00 | 0.00 | 82 | 1003.8 |
| 20260504044037 | 9 | 90 | 0.0 | 0.0 | 0.00 | 0.00 | 0.00 | 81 | 1003.8 |
| 20260504043042 | 9 | 93 | 0.0 | 0.0 | 0.00 | 0.00 | 0.00 | 82 | 1003.8 |
| 20260504042006 | 9 | 88 | 0.0 | 0.0 | 0.00 | 0.00 | 0.00 | 79 | 1004.0 |
| 20260504041029 | 9 | 79 | 0.0 | 0.0 | 0.00 | 0.00 | 0.00 | 76 | 1003.8 |
| 20260504040033 | 9 | 83 | 0.0 | 0.0 | 0.00 | 0.00 | 0.00 | 77 | 1003.4 |
| 20260504035025 | 9 | 88 | 0.0 | 0.0 | 0.00 | 0.00 | 0.00 | 77 | 1003.7 |
| 20260504034041 | 9 | 90 | 0.0 | 0.0 | 0.00 | 0.00 | 0.00 | 74 | 1003.9 |
| 20260504032005 | 9 | 95 | 0.0 | 0.0 | 0.00 | 0.00 | 0.00 | 72 | 1003.5 |
| 20260504031040 | 9 | 91 | 0.0 | 0.0 | 0.00 | 0.00 | 0.00 | 75 | 1003.5 |
| 20260504030013 | 9 | 52 | 1.6 | 3.2 | 0.00 | 0.00 | 0.00 | 74 | 1003.6 |
| 20260504025035 | 9 | 90 | 0.0 | 0.0 | 0.00 | 0.00 | 0.00 | 72 | 1003.7 |
| 20260504024036 | 9 | 97 | 0.0 | 0.0 | 0.00 | 0.00 | 0.00 | 72 | 1003.7 |
| 20260504023011 | 9 | 89 | 0.0 | 0.0 | 0.00 | 0.00 | 0.00 | 69 | 1003.4 |
| 20260504022015 | 9 | 93 | 0.0 | 0.0 | 0.00 | 0.00 | 0.00 | 68 | 1003.4 |
| 20260504021032 | 9 | 88 | 0.0 | 0.0 | 0.00 | 0.00 | 0.00 | 68 | 1003.4 |
| 20260504020044 | 9 | 91 | 0.0 | 0.0 | 0.00 | 0.00 | 0.00 | 67 | 1003.4 |
| 20260504015009 | 9 | 93 | 0.0 | 0.0 | 0.00 | 0.00 | 0.00 | 65 | 1003.3 |
| 20260504014033 | 9 | 84 | 0.0 | 0.0 | 0.00 | 0.00 | 0.00 | 65 | 1003.3 |
| 20260504012037 | 10 | 92 | 0.0 | 0.0 | 0.00 | 0.00 | 0.00 | 61 | 1003.3 |
| 20260504010040 | 10 | 97 | 0.0 | 0.0 | 0.00 | 0.00 | 0.00 | 59 | 1003.1 |
| 20260504005045 | 11 | 93 | 0.0 | 0.0 | 0.00 | 0.00 | 0.00 | 59 | 1003.3 |
| 20260504004009 | 11 | 77 | 1.6 | 3.2 | 0.00 | 0.00 | 0.00 | 56 | 1003.3 |
| 20260504003022 | 11 | 67 | 1.6 | 3.2 | 0.00 | 0.00 | 0.00 | 51 | 1003.3 |
| 20260504002027 | 12 | 76 | 0.0 | 0.0 | 0.00 | 0.00 | 0.00 | 50 | 1003.0 |
| 20260504000031 | 12 | 80 | 0.0 | 0.0 | 0.00 | 0.00 | 0.00 | 47 | 1003.3 |
| 20260503235039 | 13 | 66 | 1.6 | 3.2 | 0.00 | 0.00 | 0.00 | 46 | 1002.9 |
| 20260503234028 | 13 | 88 | 0.0 | 0.0 | 0.00 | 0.00 | 0.00 | 45 | 1003.2 |
| 20260503231017 | 15 | 98 | 1.6 | 3.2 | 0.00 | 0.00 | 0.00 | 40 | 1003.3 |
| 20260503230025 | 15 | 75 | 1.6 | 3.2 | 0.00 | 0.00 | 0.00 | 41 | 1003.4 |
| 20260503224003 | 16 | 91 | 1.6 | 3.2 | 0.00 | 0.00 | 0.00 | 40 | 1003.7 |
| 20260503223046 | 16 | 92 | 0.0 | 0.0 | 0.00 | 0.00 | 0.00 | 46 | 1003.5 |
| 20260503222031 | 16 | 75 | 0.0 | 0.0 | 0.00 | 0.00 | 0.00 | 39 | 1003.8 |
| 20260503215011 | 16 | 72 | 1.6 | 3.2 | 0.00 | 0.00 | 0.00 | 39 | 1003.9 |
| 20260503214020 | 16 | 56 | 1.6 | 4.8 | 0.00 | 0.00 | 0.00 | 37 | 1004.0 |
| 20260503213033 | 16 | 31 | 3.2 | 3.2 | 0.00 | 0.00 | 0.00 | 37 | 1003.6 |
| 20260503212008 | 16 | 85 | 1.6 | 3.2 | 0.00 | 0.00 | 0.00 | 39 | 1003.6 |
| 20260503211035 | 17 | 130 | 3.2 | 3.2 | 0.00 | 0.00 | 0.00 | 38 | 1003.8 |
| 20260503210009 | 16 | 109 | 0.0 | 0.0 | 0.00 | 0.00 | 0.00 | 39 | 1003.9 |
| 20260503205043 | 16 | 93 | 1.6 | 3.2 | 0.00 | 0.00 | 0.00 | 36 | 1004.1 |
| 20260503203023 | 17 | 89 | 0.0 | 0.0 | 0.00 | 0.00 | 0.00 | 35 | 1004.5 |
| 20260503201041 | 17 | 108 | 0.0 | 0.0 | 0.00 | 0.00 | 0.00 | 35 | 1004.5 |
| 20260503195042 | 17 | 134 | 1.6 | 3.2 | 0.00 | 0.00 | 0.00 | 35 | 1005.1 |
| 20260503193018 | 17 | 113 | 4.8 | 8.0 | 0.00 | 0.00 | 0.00 | 34 | 1005.6 |
| 20260503192015 | 17 | 200 | 3.2 | 4.8 | 0.00 | 0.00 | 0.00 | 35 | 1005.7 |
| 20260503191010 | 16 | 64 | 1.6 | 3.2 | 0.00 | 0.00 | 0.00 | 40 | 1005.9 |
| 20260503190031 | 16 | 122 | 0.0 | 0.0 | 0.00 | 0.00 | 0.00 | 36 | 1006.0 |
| 20260503185035 | 17 | 146 | 3.2 | 4.8 | 0.00 | 0.00 | 0.00 | 43 | 1006.4 |
| 20260503184007 | 17 | 127 | 1.6 | 3.2 | 0.00 | 0.00 | 0.00 | 38 | 1006.5 |
| 20260503183020 | 16 | 98 | 1.6 | 3.2 | 0.00 | 0.00 | 0.00 | 37 | 1006.8 |
| 20260503181028 | 16 | 110 | 1.6 | 3.2 | 0.00 | 0.00 | 0.00 | 39 | 1006.9 |
| 20260503180026 | 17 | 121 | 3.2 | 4.8 | 0.00 | 0.00 | 0.00 | 36 | 1006.9 |
| 20260503175012 | 16 | 93 | 3.2 | 4.8 | 0.00 | 0.00 | 0.00 | 39 | 1007.1 |
| 20260503173025 | 15 | 75 | 6.4 | 8.0 | 0.00 | 0.00 | 0.00 | 39 | 1007.2 |
| 20260503172023 | 15 | 137 | 3.2 | 3.2 | 0.00 | 0.00 | 0.00 | 36 | 1007.4 |
| 20260503171031 | 15 | 99 | 0.0 | 0.0 | 0.00 | 0.00 | 0.00 | 44 | 1007.6 |
| 20260503131020 | 7 | 133 | 1.6 | 3.2 | 0.00 | 0.00 | 0.00 | 75 | 1008.7 |